CANX-5

Last updated on Tue Oct 15 2024 00:03:36 GMT+0000 (Coordinated Universal Time)

1 40056U 14034D 24288.51730508 .00002994 00000+0 41348-3 0 9996 2 40056 98.3850 128.2667 0013444 165.1111 195.0497 14.78882529544994
UTC large
Height (km)
Speed (km/s)
/
Latitude / Longitude
Inclination (degrees)
Orbital Period (minutes)
Azimuth
Elevation
Range (km)
Doppler Factor

Next 0 passes for location: London (51.5072 / 0.1276)

Sorry there are no passes over London.